WXM80 ListenWXM80 Stop

You find our weather info also at:

UK Metoffice

WeatherCloud

Weather Underground

Northeastern Weather Network

AWEKAS

Citizen Weather Observer Program (CWOP)

HAMweather, WeatherForYou, PWS Weather


Weather Underground History page Text

Daily Summary for July 5, 2017 Units:  English    Metric   Both
« Previous Day
Next Day »
Daily Weekly Monthly Yearly Custom
  High: Low: Average:
Temperature: 85.2 °F 62.6 °F 73.6 °F
Dew Point: 73.8 °F 55.0 °F 63 °F
Humidity: 92 % 38 % 72 %
Wind Speed: 7.5 mph 0.0 mph 1.2 mph
Wind Gust: 15.0 mph - -
Wind:- - ESE
Pressure: 30.18 in 30.06 in -
Precipitation: 0.00 in    
Historical Graphs
 
 
Tabular Data for July 5, 2017
Time Temperature Dew Point Pressure Wind Wind Speed Wind Gust Humidity Rainfall Rate (Hourly)
00:00 68.7 °F 61.2 °F 30.07 in Calm     77 % 0.00 in
00:05 68.5 °F 61.4 °F 30.07 in Calm     78 % 0.00 in
00:10 68.3 °F 61.2 °F 30.07 in Calm     78 % 0.00 in
00:15 68.1 °F 61.0 °F 30.07 in Calm     78 % 0.00 in
00:20 67.9 °F 61.1 °F 30.06 in Calm     79 % 0.00 in
00:25 67.8 °F 61.0 °F 30.07 in Calm     79 % 0.00 in
00:30 67.6 °F 60.9 °F 30.07 in Calm     79 % 0.00 in
00:36 67.5 °F 60.8 °F 30.06 in Calm   1.0 mph 79 % 0.00 in
00:41 67.4 °F 60.7 °F 30.07 in Calm   1.0 mph 79 % 0.00 in
00:46 67.3 °F 60.9 °F 30.07 in WNW 0.1 mph   80 % 0.00 in
00:51 67.2 °F 61.2 °F 30.06 in Calm     81 % 0.00 in
00:55 67.0 °F 61.0 °F 30.07 in Calm   1.2 mph 81 % 0.00 in
01:01 66.9 °F 60.9 °F 30.07 in WNW 0.1 mph 1.2 mph 81 % 0.00 in
01:06 66.8 °F 60.8 °F 30.07 in Calm   1.2 mph 81 % 0.00 in
01:11 66.7 °F 61.0 °F 30.07 in Calm   1.2 mph 82 % 0.00 in
01:16 66.6 °F 61.3 °F 30.07 in Calm     83 % 0.00 in
01:21 66.5 °F 61.2 °F 30.07 in Calm     83 % 0.00 in
01:26 66.3 °F 61.0 °F 30.07 in Calm     83 % 0.00 in
01:31 66.3 °F 61.0 °F 30.07 in WNW 0.2 mph 1.2 mph 83 % 0.00 in
01:36 66.1 °F 60.8 °F 30.08 in WNW 0.1 mph 1.0 mph 83 % 0.00 in
01:41 66.1 °F 61.1 °F 30.07 in Calm     84 % 0.00 in
01:46 65.9 °F 60.9 °F 30.07 in WNW 0.2 mph 1.2 mph 84 % 0.00 in
01:51 65.9 °F 61.3 °F 30.08 in Calm     85 % 0.00 in
01:56 65.8 °F 61.2 °F 30.08 in WNW 0.1 mph 1.2 mph 85 % 0.00 in
02:01 65.7 °F 61.1 °F 30.08 in Calm   1.2 mph 85 % 0.00 in
02:07 65.6 °F 61.0 °F 30.07 in Calm     85 % 0.00 in
02:12 65.5 °F 60.9 °F 30.07 in Calm     85 % 0.00 in
02:17 65.4 °F 61.1 °F 30.07 in Calm   1.2 mph 86 % 0.00 in
02:22 65.4 °F 61.1 °F 30.07 in WNW 0.3 mph 1.2 mph 86 % 0.00 in
02:27 65.3 °F 61.0 °F 30.07 in WNW 0.1 mph 1.2 mph 86 % 0.00 in
02:32 65.2 °F 60.9 °F 30.07 in Calm     86 % 0.00 in
02:37 65.1 °F 61.1 °F 30.07 in Calm   1.2 mph 87 % 0.00 in
02:42 65.0 °F 61.0 °F 30.08 in WNW 0.3 mph 2.0 mph 87 % 0.00 in
02:47 64.9 °F 60.9 °F 30.08 in Calm     87 % 0.00 in
02:52 64.8 °F 61.2 °F 30.08 in WNW 0.1 mph 1.2 mph 88 % 0.00 in
02:57 64.7 °F 61.1 °F 30.08 in WNW 0.4 mph 1.2 mph 88 % 0.00 in
03:02 64.7 °F 61.1 °F 30.08 in Calm     88 % 0.00 in
03:07 64.6 °F 61.0 °F 30.08 in Calm     88 % 0.00 in
03:12 64.5 °F 60.9 °F 30.08 in Calm     88 % 0.00 in
03:17 64.4 °F 60.8 °F 30.08 in Calm     88 % 0.00 in
03:22 64.4 °F 60.8 °F 30.08 in Calm     88 % 0.00 in
03:27 64.3 °F 60.7 °F 30.08 in WNW 0.1 mph 1.2 mph 88 % 0.00 in
03:28 64.3 °F 60.7 °F 30.08 in Calm   1.2 mph 88 % 0.00 in
03:33 64.2 °F 60.6 °F 30.08 in Calm   1.2 mph 88 % 0.00 in
03:38 64.1 °F 60.5 °F 30.08 in Calm     88 % 0.00 in
03:43 64.0 °F 60.7 °F 30.08 in Calm     89 % 0.00 in
03:48 63.9 °F 60.3 °F 30.09 in Calm     88 % 0.00 in
03:53 63.8 °F 60.5 °F 30.09 in Calm   1.2 mph 89 % 0.00 in
03:58 63.8 °F 60.5 °F 30.09 in Calm   1.2 mph 89 % 0.00 in
04:03 63.6 °F 60.3 °F 30.09 in Calm     89 % 0.00 in
04:08 63.6 °F 60.3 °F 30.09 in Calm     89 % 0.00 in
04:13 63.6 °F 60.6 °F 30.09 in Calm     90 % 0.00 in
04:18 63.5 °F 60.5 °F 30.09 in Calm     90 % 0.00 in
04:23 63.5 °F 60.5 °F 30.09 in Calm     90 % 0.00 in
04:28 63.4 °F 60.4 °F 30.09 in Calm     90 % 0.00 in
04:33 63.3 °F 60.3 °F 30.09 in Calm     90 % 0.00 in
04:38 63.3 °F 60.3 °F 30.09 in Calm     90 % 0.00 in
04:43 63.2 °F 60.2 °F 30.09 in Calm     90 % 0.00 in
04:49 63.1 °F 60.1 °F 30.09 in Calm     90 % 0.00 in
04:54 63.0 °F 60.0 °F 30.09 in Calm     90 % 0.00 in
04:59 63.0 °F 60.0 °F 30.10 in Calm     90 % 0.00 in
05:04 62.9 °F 59.9 °F 30.10 in Calm     90 % 0.00 in
05:09 62.8 °F 59.8 °F 30.10 in Calm     90 % 0.00 in
05:14 62.8 °F 59.8 °F 30.10 in Calm     90 % 0.00 in
05:15 62.8 °F 60.1 °F 30.10 in Calm     91 % 0.00 in
05:20 62.7 °F 60.0 °F 30.10 in Calm     91 % 0.00 in
05:25 62.7 °F 60.0 °F 30.11 in WNW 0.4 mph 1.2 mph 91 % 0.00 in
05:30 62.6 °F 59.9 °F 30.10 in WNW 0.4 mph 1.2 mph 91 % 0.00 in
05:35 62.6 °F 59.9 °F 30.10 in ENE 1.2 mph 3.5 mph 91 % 0.00 in
05:40 62.7 °F 60.0 °F 30.10 in ENE 1.4 mph 3.5 mph 91 % 0.00 in
05:45 62.9 °F 60.5 °F 30.11 in ENE 1.8 mph 3.5 mph 92 % 0.00 in
05:50 63.0 °F 60.6 °F 30.11 in NE 1.3 mph 3.5 mph 92 % 0.00 in
05:55 63.3 °F 60.6 °F 30.11 in ENE 1.6 mph 2.3 mph 91 % 0.00 in
06:00 63.6 °F 61.2 °F 30.11 in NE 1.8 mph 3.5 mph 92 % 0.00 in
06:01 63.7 °F 61.3 °F 30.11 in NE 1.0 mph 3.5 mph 92 % 0.00 in
06:06 64.0 °F 61.3 °F 30.11 in NE 1.2 mph 3.5 mph 91 % 0.00 in
06:11 64.3 °F 61.6 °F 30.11 in ENE 2.1 mph 3.0 mph 91 % 0.00 in
06:16 64.7 °F 62.0 °F 30.11 in NE 1.4 mph 6.9 mph 91 % 0.00 in
06:21 65.0 °F 62.0 °F 30.11 in NE 3.7 mph 6.9 mph 90 % 0.00 in
06:26 65.5 °F 62.2 °F 30.11 in NE 2.9 mph 5.0 mph 89 % 0.00 in
06:31 66.0 °F 62.7 °F 30.12 in NNE 1.4 mph 2.3 mph 89 % 0.00 in
06:36 66.5 °F 62.8 °F 30.12 in ENE 1.7 mph 4.6 mph 88 % 0.00 in
06:41 67.0 °F 63.0 °F 30.12 in ENE 1.1 mph 2.3 mph 87 % 0.00 in
06:46 67.6 °F 63.6 °F 30.12 in East 1.2 mph 3.5 mph 87 % 0.00 in
06:52 68.2 °F 64.2 °F 30.12 in NNE 2.0 mph 3.5 mph 87 % 0.00 in
06:57 68.8 °F 64.4 °F 30.12 in NE 1.5 mph 4.6 mph 86 % 0.00 in
07:02 69.5 °F 64.5 °F 30.12 in NE 2.3 mph 3.5 mph 84 % 0.00 in
07:07 70.1 °F 64.7 °F 30.13 in NE 1.7 mph 3.5 mph 83 % 0.00 in
07:11 70.4 °F 64.3 °F 30.13 in ENE 2.0 mph 5.0 mph 81 % 0.00 in
07:16 71.0 °F 65.3 °F 30.13 in NE 2.0 mph 6.0 mph 82 % 0.00 in
07:21 71.5 °F 65.0 °F 30.13 in NE 3.0 mph 6.0 mph 80 % 0.00 in
07:26 71.9 °F 65.1 °F 30.14 in NE 3.0 mph 9.0 mph 79 % 0.00 in
07:31 72.3 °F 65.0 °F 30.14 in NE 3.0 mph 7.0 mph 78 % 0.00 in
07:36 72.6 °F 65.0 °F 30.14 in NE 2.0 mph 5.8 mph 77 % 0.00 in
07:41 72.8 °F 65.2 °F 30.15 in NE 2.0 mph 7.0 mph 77 % 0.00 in
07:46 72.9 °F 64.9 °F 30.15 in NE 3.0 mph 7.0 mph 76 % 0.00 in
07:51 72.8 °F 64.4 °F 30.15 in NE 3.0 mph 8.0 mph 75 % 0.00 in
07:56 72.7 °F 65.1 °F 30.15 in ENE 2.0 mph 7.0 mph 77 % 0.00 in
08:01 72.6 °F 65.3 °F 30.16 in ENE 1.7 mph 4.0 mph 78 % 0.00 in
08:06 72.5 °F 64.9 °F 30.16 in ENE 2.8 mph 6.0 mph 77 % 0.00 in
08:11 72.4 °F 64.0 °F 30.16 in ENE 1.0 mph 5.0 mph 75 % 0.00 in
08:16 72.3 °F 64.3 °F 30.16 in ENE 1.5 mph 3.5 mph 76 % 0.00 in
08:21 72.3 °F 64.3 °F 30.16 in NE 0.7 mph 2.3 mph 76 % 0.00 in
08:26 72.3 °F 63.9 °F 30.16 in NE 0.9 mph 3.5 mph 75 % 0.00 in
08:31 72.2 °F 64.2 °F 30.16 in NE 0.8 mph 2.3 mph 76 % 0.00 in
08:36 72.2 °F 64.2 °F 30.16 in NE 3.7 mph 5.8 mph 76 % 0.00 in
08:41 72.2 °F 65.0 °F 30.16 in ENE 1.8 mph 4.6 mph 78 % 0.00 in
08:46 72.2 °F 64.6 °F 30.16 in NE 1.9 mph 3.5 mph 77 % 0.00 in
08:51 72.2 °F 63.8 °F 30.16 in NNE 2.7 mph 4.6 mph 75 % 0.00 in
08:56 72.1 °F 64.1 °F 30.16 in NE 2.3 mph 4.0 mph 76 % 0.00 in
09:01 72.1 °F 64.5 °F 30.17 in ENE 2.7 mph 7.0 mph 77 % 0.00 in
09:06 72.0 °F 64.0 °F 30.17 in ENE 2.2 mph 3.5 mph 76 % 0.00 in
09:11 72.0 °F 64.8 °F 30.17 in ENE 1.1 mph 2.3 mph 78 % 0.00 in
09:16 72.0 °F 64.4 °F 30.17 in ENE 2.1 mph 3.5 mph 77 % 0.00 in
09:21 72.0 °F 64.8 °F 30.17 in ENE 2.0 mph 3.0 mph 78 % 0.00 in
09:26 72.1 °F 64.9 °F 30.17 in NE 1.6 mph 3.5 mph 78 % 0.00 in
09:31 72.0 °F 64.8 °F 30.17 in ENE 1.5 mph 2.3 mph 78 % 0.00 in
09:36 72.0 °F 64.8 °F 30.17 in ENE 2.2 mph 4.0 mph 78 % 0.00 in
09:41 72.0 °F 64.8 °F 30.17 in NE 2.7 mph 5.0 mph 78 % 0.00 in
09:46 72.2 °F 65.0 °F 30.16 in ENE 3.0 mph 4.0 mph 78 % 0.00 in
09:51 72.5 °F 65.2 °F 30.16 in ENE 1.7 mph 5.8 mph 78 % 0.00 in
09:56 73.0 °F 65.7 °F 30.16 in ENE 2.2 mph 5.8 mph 78 % 0.00 in
10:02 73.5 °F 65.5 °F 30.16 in ENE 3.0 mph 9.0 mph 76 % 0.00 in
10:07 74.2 °F 65.8 °F 30.17 in ENE 3.3 mph 5.0 mph 75 % 0.00 in
10:12 74.8 °F 66.7 °F 30.16 in NNE 2.3 mph 3.5 mph 76 % 0.00 in
10:17 75.3 °F 66.8 °F 30.17 in ENE 1.7 mph 3.5 mph 75 % 0.00 in
10:22 75.5 °F 66.6 °F 30.17 in ENE 1.5 mph 5.8 mph 74 % 0.00 in
10:27 75.8 °F 67.3 °F 30.16 in NE 1.8 mph 3.0 mph 75 % 0.00 in
10:32 76.4 °F 68.7 °F 30.17 in NNE 2.3 mph 3.0 mph 77 % 0.00 in
10:37 76.8 °F 68.3 °F 30.17 in NE 1.0 mph 4.0 mph 75 % 0.00 in
10:42 77.2 °F 68.7 °F 30.17 in ENE 2.8 mph 3.5 mph 75 % 0.00 in
10:47 77.7 °F 68.4 °F 30.17 in NE 2.0 mph 8.1 mph 73 % 0.00 in
10:52 78.2 °F 68.8 °F 30.17 in NE 3.0 mph 8.0 mph 73 % 0.00 in
10:57 78.5 °F 68.7 °F 30.17 in ENE 0.3 mph 3.5 mph 72 % 0.00 in
11:02 79.0 °F 69.6 °F 30.17 in ENE 2.6 mph 6.9 mph 73 % 0.00 in
11:07 79.0 °F 70.4 °F 30.17 in NE 0.4 mph 3.5 mph 75 % 0.00 in
11:12 79.3 °F 69.9 °F 30.17 in ENE 1.3 mph 8.1 mph 73 % 0.00 in
11:15 79.3 °F 69.5 °F 30.17 in NE 2.7 mph 3.5 mph 72 % 0.00 in
11:20 79.3 °F 69.9 °F 30.17 in NE 1.8 mph 4.6 mph 73 % 0.00 in
11:25 79.2 °F 69.4 °F 30.17 in NE 2.9 mph 6.9 mph 72 % 0.00 in
11:30 79.3 °F 70.3 °F 30.17 in ENE 1.7 mph 3.5 mph 74 % 0.00 in
11:31 79.4 °F 71.2 °F 30.17 in NNE 1.7 mph 5.0 mph 76 % 0.00 in
11:36 79.7 °F 70.3 °F 30.18 in ENE 2.2 mph 7.0 mph 73 % 0.00 in
11:41 79.8 °F 70.8 °F 30.18 in NE 1.7 mph 3.5 mph 74 % 0.00 in
11:47 80.0 °F 69.7 °F 30.17 in NE 2.2 mph 6.9 mph 71 % 0.00 in
11:52 79.5 °F 69.7 °F 30.18 in ENE 1.3 mph 6.9 mph 72 % 0.00 in
11:57 79.4 °F 70.8 °F 30.17 in ENE 0.7 mph 2.3 mph 75 % 0.00 in
12:02 80.1 °F 70.7 °F 30.18 in ENE 2.7 mph 3.5 mph 73 % 0.00 in
12:07 80.5 °F 70.6 °F 30.17 in ENE 1.3 mph 3.5 mph 72 % 0.00 in
12:12 80.8 °F 70.9 °F 30.17 in ENE 3.1 mph 6.9 mph 72 % 0.00 in
12:17 80.7 °F 70.0 °F 30.17 in NE 3.9 mph 5.8 mph 70 % 0.00 in
12:22 81.0 °F 71.5 °F 30.17 in NE 1.9 mph 3.5 mph 73 % 0.00 in
12:27 81.2 °F 70.1 °F 30.17 in ENE 2.9 mph 6.0 mph 69 % 0.00 in
12:32 81.1 °F 71.2 °F 30.17 in ENE 1.2 mph 4.6 mph 72 % 0.00 in
12:37 81.6 °F 72.9 °F 30.17 in ENE 0.1 mph 1.2 mph 75 % 0.00 in
12:42 82.0 °F 72.1 °F 30.17 in NE 1.3 mph 3.5 mph 72 % 0.00 in
12:47 82.0 °F 71.7 °F 30.17 in ENE 0.6 mph 2.3 mph 71 % 0.00 in
12:52 82.0 °F 71.7 °F 30.16 in ENE 2.0 mph 5.0 mph 71 % 0.00 in
12:57 82.0 °F 71.7 °F 30.16 in NE 3.5 mph 5.8 mph 71 % 0.00 in
13:02 82.4 °F 72.5 °F 30.16 in NNE 0.5 mph 2.3 mph 72 % 0.00 in
13:07 82.6 °F 72.2 °F 30.16 in NNE 1.1 mph 3.5 mph 71 % 0.00 in
13:12 82.9 °F 73.8 °F 30.16 in NE 0.4 mph 2.3 mph 74 % 0.00 in
13:17 83.3 °F 72.9 °F 30.15 in Calm   1.2 mph 71 % 0.00 in
13:22 83.2 °F 72.4 °F 30.16 in ENE 1.3 mph 4.0 mph 70 % 0.00 in
13:27 82.8 °F 72.4 °F 30.16 in East 1.0 mph 6.9 mph 71 % 0.00 in
13:32 82.9 °F 72.1 °F 30.16 in NE 1.0 mph 3.5 mph 70 % 0.00 in
13:37 83.2 °F 73.2 °F 30.16 in NE 0.2 mph 1.2 mph 72 % 0.00 in
13:43 83.2 °F 71.5 °F 30.16 in NE 2.0 mph 3.5 mph 68 % 0.00 in
13:48 82.9 °F 72.1 °F 30.16 in Calm   1.2 mph 70 % 0.00 in
13:53 83.1 °F 71.4 °F 30.15 in NE 0.1 mph 2.3 mph 68 % 0.00 in
13:58 83.5 °F 73.1 °F 30.15 in NE 0.1 mph 1.2 mph 71 % 0.00 in
14:03 83.7 °F 72.0 °F 30.15 in NE 1.9 mph 3.5 mph 68 % 0.00 in
14:08 83.7 °F 71.1 °F 30.15 in NE 1.4 mph 3.5 mph 66 % 0.00 in
14:13 83.5 °F 72.3 °F 30.15 in NE 0.5 mph 3.5 mph 69 % 0.00 in
14:18 83.5 °F 70.9 °F 30.15 in ENE 1.8 mph 3.5 mph 66 % 0.00 in
14:23 83.0 °F 70.5 °F 30.15 in ENE 2.2 mph 3.5 mph 66 % 0.00 in
14:28 82.9 °F 70.8 °F 30.15 in NE 0.2 mph 3.5 mph 67 % 0.00 in
14:33 83.0 °F 71.8 °F 30.15 in NE 0.8 mph 3.0 mph 69 % 0.00 in
14:38 83.2 °F 70.7 °F 30.15 in ENE 2.1 mph 3.5 mph 66 % 0.00 in
14:43 83.3 °F 71.2 °F 30.14 in NE 0.6 mph 6.0 mph 67 % 0.00 in
14:48 83.2 °F 71.5 °F 30.14 in ENE 0.9 mph 3.0 mph 68 % 0.00 in
14:50 83.3 °F 70.3 °F 30.15 in ENE 0.5 mph 3.5 mph 65 % 0.00 in
14:55 83.4 °F 70.4 °F 30.14 in NE 1.9 mph 3.5 mph 65 % 0.00 in
15:00 83.6 °F 70.1 °F 30.15 in ENE 2.9 mph 6.9 mph 64 % 0.00 in
15:05 83.5 °F 70.5 °F 30.14 in NE 0.2 mph 1.2 mph 65 % 0.00 in
15:10 83.7 °F 65.3 °F 30.14 in SE 2.6 mph 5.8 mph 54 % 0.00 in
15:15 84.1 °F 64.6 °F 30.14 in Calm   1.2 mph 52 % 0.00 in
15:20 84.6 °F 63.3 °F 30.14 in SE 2.1 mph 3.5 mph 49 % 0.00 in
15:25 84.9 °F 63.0 °F 30.15 in ESE 0.4 mph 2.3 mph 48 % 0.00 in
15:30 85.0 °F 60.0 °F 30.15 in SE 3.6 mph 9.2 mph 43 % 0.00 in
15:35 85.0 °F 63.1 °F 30.15 in SE 3.2 mph 5.0 mph 48 % 0.00 in
15:40 85.0 °F 60.6 °F 30.15 in SE 0.5 mph 4.6 mph 44 % 0.00 in
15:46 85.1 °F 60.7 °F 30.15 in SSE 5.2 mph 5.8 mph 44 % 0.00 in
15:51 85.1 °F 60.7 °F 30.14 in South 1.8 mph 5.8 mph 44 % 0.00 in
15:56 85.2 °F 60.8 °F 30.14 in SE 5.3 mph 6.9 mph 44 % 0.00 in
16:01 85.0 °F 59.3 °F 30.14 in SSE 3.7 mph 7.0 mph 42 % 0.00 in
16:06 84.8 °F 62.3 °F 30.14 in SSE 1.4 mph 3.5 mph 47 % 0.00 in
16:11 84.6 °F 61.5 °F 30.14 in SE 3.1 mph 10.4 mph 46 % 0.00 in
16:16 84.1 °F 59.2 °F 30.14 in ESE 6.1 mph 11.5 mph 43 % 0.00 in
16:21 83.6 °F 59.4 °F 30.14 in SE 2.4 mph 6.9 mph 44 % 0.00 in
16:26 83.5 °F 59.9 °F 30.14 in SE 4.1 mph 5.0 mph 45 % 0.00 in
16:31 83.4 °F 59.2 °F 30.13 in SE 4.2 mph 10.4 mph 44 % 0.00 in
16:36 83.4 °F 59.2 °F 30.14 in SSE 2.0 mph 4.6 mph 44 % 0.00 in
16:41 83.4 °F 57.9 °F 30.13 in ESE 2.5 mph 5.0 mph 42 % 0.00 in
16:46 83.4 °F 55.8 °F 30.13 in SSE 1.6 mph 3.5 mph 39 % 0.00 in
16:48 83.4 °F 56.5 °F 30.13 in SE 2.7 mph 5.0 mph 40 % 0.00 in
16:53 83.3 °F 55.0 °F 30.14 in SSE 4.7 mph 9.2 mph 38 % 0.00 in
16:58 83.1 °F 56.3 °F 30.14 in SE 2.0 mph 5.0 mph 40 % 0.00 in
17:04 82.8 °F 56.0 °F 30.14 in SSE 7.5 mph 15.0 mph 40 % 0.00 in
17:09 82.7 °F 57.9 °F 30.14 in SSE 1.0 mph 2.0 mph 43 % 0.00 in
17:14 82.7 °F 57.3 °F 30.14 in SSE 6.6 mph 9.2 mph 42 % 0.00 in
17:19 82.4 °F 56.3 °F 30.13 in SE 2.3 mph 7.0 mph 41 % 0.00 in
17:24 82.3 °F 57.6 °F 30.14 in South 1.0 mph 3.5 mph 43 % 0.00 in
17:29 82.1 °F 56.7 °F 30.13 in South 1.2 mph 3.5 mph 42 % 0.00 in
17:34 81.9 °F 57.8 °F 30.13 in SE 0.7 mph 2.3 mph 44 % 0.00 in
17:39 81.8 °F 57.1 °F 30.13 in SSE 1.3 mph 4.0 mph 43 % 0.00 in
17:44 81.6 °F 56.9 °F 30.13 in SSW 1.2 mph 3.5 mph 43 % 0.00 in
17:49 81.4 °F 57.4 °F 30.14 in South 0.3 mph 3.0 mph 44 % 0.00 in
17:54 81.2 °F 56.6 °F 30.13 in SE 0.8 mph 3.0 mph 43 % 0.00 in
17:59 80.8 °F 56.2 °F 30.14 in SSE 4.4 mph 8.0 mph 43 % 0.00 in
18:04 80.4 °F 56.5 °F 30.14 in SE 5.0 mph 9.2 mph 44 % 0.00 in
18:09 80.2 °F 56.9 °F 30.14 in SE 0.3 mph 3.5 mph 45 % 0.00 in
18:14 80.0 °F 57.4 °F 30.14 in SE 1.7 mph 3.5 mph 46 % 0.00 in
18:19 80.0 °F 58.0 °F 30.14 in SE 1.1 mph 3.5 mph 47 % 0.00 in
18:24 79.9 °F 57.3 °F 30.14 in SSE 2.9 mph 8.1 mph 46 % 0.00 in
18:29 79.8 °F 57.8 °F 30.14 in SSE 2.8 mph 3.5 mph 47 % 0.00 in
18:34 79.7 °F 58.8 °F 30.14 in SSE 1.2 mph 3.5 mph 49 % 0.00 in
18:39 79.6 °F 57.0 °F 30.14 in SE 3.8 mph 5.0 mph 46 % 0.00 in
18:44 79.5 °F 59.2 °F 30.14 in SE 0.2 mph 2.0 mph 50 % 0.00 in
18:49 79.3 °F 57.3 °F 30.14 in SE 4.4 mph 5.0 mph 47 % 0.00 in
18:54 79.1 °F 57.7 °F 30.14 in SSE 4.1 mph 5.0 mph 48 % 0.00 in
18:59 78.9 °F 57.0 °F 30.14 in SE 3.7 mph 8.1 mph 47 % 0.00 in
19:04 78.7 °F 57.4 °F 30.13 in SE 3.3 mph 5.8 mph 48 % 0.00 in
19:09 78.5 °F 57.7 °F 30.14 in SSE 1.3 mph 2.3 mph 49 % 0.00 in
19:14 78.3 °F 58.1 °F 30.14 in SSE 0.9 mph 3.5 mph 50 % 0.00 in
19:19 78.2 °F 59.1 °F 30.14 in SSE 0.5 mph 2.3 mph 52 % 0.00 in
19:24 78.1 °F 59.0 °F 30.14 in SSE 1.4 mph 2.3 mph 52 % 0.00 in
19:29 77.9 °F 58.9 °F 30.14 in Calm   3.5 mph 52 % 0.00 in
19:34 77.7 °F 58.7 °F 30.14 in SE 2.1 mph 2.3 mph 52 % 0.00 in
19:39 77.5 °F 59.0 °F 30.14 in SE 0.4 mph 3.5 mph 53 % 0.00 in
19:44 77.3 °F 58.8 °F 30.14 in South 2.6 mph 8.1 mph 53 % 0.00 in
19:49 77.0 °F 58.6 °F 30.14 in SE 2.4 mph 4.0 mph 53 % 0.00 in
19:54 76.8 °F 59.4 °F 30.14 in SE 0.5 mph 3.5 mph 55 % 0.00 in
19:59 76.5 °F 59.1 °F 30.14 in SE 2.3 mph 3.5 mph 55 % 0.00 in
20:05 76.3 °F 59.4 °F 30.13 in SE 0.9 mph 2.3 mph 56 % 0.00 in
20:10 76.0 °F 59.7 °F 30.13 in SE 0.2 mph   57 % 0.00 in
20:15 75.7 °F 59.9 °F 30.13 in SE 1.6 mph 2.3 mph 58 % 0.00 in
20:20 75.4 °F 60.1 °F 30.14 in Calm   1.2 mph 59 % 0.00 in
20:25 75.1 °F 60.3 °F 30.14 in SE 2.3 mph 4.6 mph 60 % 0.00 in
20:30 74.8 °F 60.4 °F 30.14 in SE 0.5 mph 2.3 mph 61 % 0.00 in
20:35 74.5 °F 60.2 °F 30.14 in Calm   1.2 mph 61 % 0.00 in
20:40 74.3 °F 60.4 °F 30.14 in SE 0.3 mph 2.3 mph 62 % 0.00 in
20:45 74.0 °F 60.6 °F 30.14 in Calm   1.2 mph 63 % 0.00 in
20:50 73.8 °F 60.4 °F 30.14 in Calm     63 % 0.00 in
20:55 73.6 °F 60.7 °F 30.14 in SE 0.5 mph 2.3 mph 64 % 0.00 in
21:00 73.3 °F 60.8 °F 30.14 in SE 0.1 mph 1.2 mph 65 % 0.00 in
21:05 73.1 °F 60.6 °F 30.14 in SE 0.3 mph 1.2 mph 65 % 0.00 in
21:10 72.9 °F 61.3 °F 30.15 in Calm     67 % 0.00 in
21:15 72.6 °F 61.4 °F 30.15 in Calm     68 % 0.00 in
21:20 72.3 °F 61.6 °F 30.15 in Calm     69 % 0.00 in
21:25 72.1 °F 61.4 °F 30.15 in Calm     69 % 0.00 in
21:30 71.8 °F 61.1 °F 30.15 in Calm     69 % 0.00 in
21:35 71.5 °F 61.2 °F 30.16 in Calm     70 % 0.00 in
21:40 71.2 °F 61.3 °F 30.16 in Calm     71 % 0.00 in
21:45 70.9 °F 61.8 °F 30.16 in Calm     73 % 0.00 in
21:50 70.6 °F 61.5 °F 30.16 in Calm     73 % 0.00 in
21:56 70.4 °F 61.3 °F 30.17 in Calm   1.2 mph 73 % 0.00 in
22:01 70.2 °F 61.5 °F 30.17 in Calm     74 % 0.00 in
22:06 69.9 °F 61.2 °F 30.17 in Calm     74 % 0.00 in
22:11 69.7 °F 61.4 °F 30.17 in Calm     75 % 0.00 in
22:16 69.5 °F 61.6 °F 30.17 in Calm     76 % 0.00 in
22:21 69.3 °F 61.4 °F 30.17 in Calm     76 % 0.00 in
22:26 69.1 °F 61.2 °F 30.17 in Calm     76 % 0.00 in
22:31 69.0 °F 61.5 °F 30.17 in Calm     77 % 0.00 in
22:36 68.8 °F 61.3 °F 30.17 in Calm     77 % 0.00 in
22:41 68.6 °F 61.1 °F 30.17 in Calm     77 % 0.00 in
22:46 68.5 °F 61.4 °F 30.18 in Calm     78 % 0.00 in
22:51 68.4 °F 61.6 °F 30.17 in Calm     79 % 0.00 in
22:56 68.3 °F 61.5 °F 30.17 in Calm     79 % 0.00 in
23:01 68.1 °F 61.3 °F 30.17 in Calm     79 % 0.00 in
23:06 68.1 °F 61.3 °F 30.17 in Calm     79 % 0.00 in
23:11 68.0 °F 61.6 °F 30.17 in Calm     80 % 0.00 in
23:16 67.9 °F 61.5 °F 30.17 in Calm     80 % 0.00 in
23:21 67.8 °F 61.4 °F 30.17 in Calm     80 % 0.00 in
23:26 67.7 °F 61.3 °F 30.16 in Calm     80 % 0.00 in
23:31 67.6 °F 61.6 °F 30.16 in Calm     81 % 0.00 in
23:37 67.5 °F 61.8 °F 30.16 in Calm     82 % 0.00 in
23:42 67.4 °F 61.7 °F 30.15 in Calm     82 % 0.00 in
23:47 67.3 °F 61.6 °F 30.15 in Calm     82 % 0.00 in
23:52 67.2 °F 61.5 °F 30.15 in Calm     82 % 0.00 in
23:57 67.0 °F 61.3 °F 30.15 in Calm     82 % 0.00 in
Crab Meadow Weather
Compliments of Weather Underground - 3 mb

Script developed by  Jim McMurry - jmcmurry@mwt.net Adapted for the template by  Wim van der Kuil - Leuven-Template.eu

Weather Terms: Tornado Warning - Strong rotation in a thunderstorm is indicated by Doppler radar or a tornado is sighted by skywarn spotters. These warnings are issued on a county by county basis by the local Weather Forecast office in Upton.